map of QRO home
QRO - Airport
Location
City:  Querétaro, Querétaro, México
Name:Ingeniero Fernando Espinoza Gutiérrez International Airport
ICAO:MMQT
IATA:QRO

Details
Type:Airport (Aerodrome, Airfield)
Use:Public/Civil, International (customs port of entry)
Latitude:20°37'02"N (20.617289)
Longitude:100°11'08"W (-100.185657)
Datum:WGS 1984
Elevation:6296 ft (1919 m)
Variation:4.96°E (WMM2015v2 magnetic declination)
-0.11° annual change
Runways:1
Longest:11483 × 148 ft (3500 × 45 m), paved

Time
Time Zone:UTC-6 (DST-5)
Local Time:

Weather
METAR:MMQT 041347Z 00000KT 5SM SKC 05/01 A3025

Related Locations
Nearby:
Farthest:NKW: 11394 mi / 18337 km
Diego Garcia, Chagos Archipelago, IO

Find:

   beyond  
but within

Other Information
Maps:
NOTAMs:
Links:
Sources:

  
  • flag of México
  • flag of Querétaro
  

Sectional Chart

Flight Planning
at skyvector.com

Satellite Image

Google Maps Satellite view

 

Copyright © 2004-2019 Karl L. Swartz. All rights reserved.
The Great Circle Mapper name and logo are trademarks of the Great Circle Mapper.
All other trademarks mentioned herein belong to their respective owners.
Please see credits for attibutions and further copyright information.

  Follow gcmap on Facebook Follow gcmap on Twitter GCmap on LinkedIn

hCard Microformat

Geo Microformat